Location: LDNL
(36.4545°S, 141.6685°E)
Time: 22:01:01
(UTC+11:00)

Courier 1B Rocket - Pass Details

Date: 30 January 2023
Orbit: 920 x 1202 km, 28.2° (Epoch: 26 March)

Event Time Altitude Azimuth Distance (km) Brightness Sun altitude
Rises 14:06:24 0° 281° (W) 3,880 8.2 70.8°
Reaches altitude 10° 14:11:52 10° 315° (NW) 2,832 7.9 70.5°
Maximum altitude 14:13:31 11° 329° (NNW) 2,739 7.8 70.4°
Drops below altitude 10° 14:15:08 10° 343° (NNW) 2,779 7.9 70.3°
Sets 14:20:18 0° 17° (NNE) 3,647 8.2 69.9°
